Weather History for PAKN - April, 2013

Change the Weather History Date:

Tuesday, April 9, 2013

  Actual Average Record
Temperature  
Mean Temperature 9 °F 31 °F  
Max Temperature 17 °F 40 °F 54 °F (1940)
Min Temperature 1 °F 23 °F -2 °F (1985)
Degree Days  
Heating Degree Days 56 34  
Month to date heating degree days 368 318  
Since 1 July heating degree days 9572 9201  
Cooling Degree Days 0    
Month to date cooling degree days 0  
Year to date cooling degree days 0  
Moisture  
Dew Point -4 °F    
Average Humidity 0    
Maximum Humidity 0    
Minimum Humidity 0    
Precipitation  
Precipitation 0.00 in 0.03 in 0.41 in (1952)
Month to date precipitation 0.01 0.27  
Year to date precipitation 5.84 2.75  
Snow  
Snow 0.00 in 0.20 in 2.20 in (1974)
Month to date snowfall T 1.7  
Since 1 July snowfall 73.7 43.6  
Snow Depth 0.00 in    
Sea Level Pressure  
Sea Level Pressure 29.58 in    
Wind  
Wind Speed 12 mph (NW)    
Max Wind Speed 20 mph    
Max Gust Speed 25 mph    
Visibility 10 miles    
Events      
T = Trace of Precipitation, MM = Missing Value Source: NWS Daily Summary

Daily Weather History Graph

Daily Weather History Graph

Search for Another Location

Airport or City:

Trip Planner

Search our weather history database for the weather conditions in past years. The results will help you decide how hot, cold, wet, or windy it might be!

Date:

Astronomy

Apr. 09, 2013 Rise Set
Actual Time 7:29 AM AKDT 9:28 PM AKDT
Civil Twilight 6:46 AM AKDT 10:11 PM AKDT
Nautical Twilight 5:52 AM AKDT 11:05 PM AKDT
Astronomical Twilight 4:46 AM AKDT 12:13 AM AKDT
Moon 7:02 AM AKDT (4/9) 9:19 PM AKDT (4/9)
Length of Visible Light 15h 24m
Length of Day
13h 58m
Waning Crescent, 0% of the Moon is Illuminated
Apr 9
Waning Crescent
Apr 10
New
Apr 18
First Quarter
Apr 25
Full
May 2
Last Quarter

Hourly Weather History & Observations

Time (AKDT) Temp. Windchill Dew Point Humidity Pressure Visibility Wind Dir Wind Speed Gust Speed Precip Events Conditions
12:54 AM 7.0 °F -6.6 °F -2.0 °F 67% 29.60 in 10.0 mi NNW 9.2 mph - N/A   Clear
1:54 AM 5.0 °F -9.1 °F -2.9 °F 70% 29.59 in 10.0 mi North 9.2 mph - N/A   Clear
2:54 AM 3.9 °F -10.4 °F -2.9 °F 73% 29.57 in 10.0 mi North 9.2 mph - N/A   Clear
3:54 AM 3.0 °F -9.3 °F -4.0 °F 73% 29.55 in 10.0 mi NNW 6.9 mph - N/A   Clear
4:54 AM 3.0 °F -10.5 °F -6.0 °F 66% 29.54 in 10.0 mi NNW 8.1 mph - N/A   Clear
5:54 AM 1.9 °F -12.9 °F -6.0 °F 69% 29.53 in 10.0 mi NNW 9.2 mph - N/A   Clear
6:54 AM 1.0 °F -14.9 °F -7.1 °F 69% 29.52 in 10.0 mi NNW 10.4 mph - N/A   Partly Cloudy
7:54 AM 1.0 °F -14.0 °F -7.1 °F 69% 29.53 in 10.0 mi NNW 9.2 mph - N/A   Scattered Clouds
8:54 AM 3.9 °F -14.3 °F -7.1 °F 60% 29.53 in 10.0 mi NW 15.0 mph - N/A   Scattered Clouds
9:54 AM 7.0 °F -9.8 °F -7.1 °F 53% 29.53 in 10.0 mi NW 13.8 mph 21.9 mph N/A   Scattered Clouds
10:54 AM 9.0 °F -9.5 °F -7.1 °F 48% 29.53 in 10.0 mi NNW 18.4 mph 25.3 mph N/A   Scattered Clouds
11:54 AM 12.0 °F -5.1 °F -7.1 °F 42% 29.54 in 10.0 mi NW 17.3 mph 23.0 mph N/A   Scattered Clouds
12:54 PM 12.9 °F -3.9 °F -6.0 °F 43% 29.54 in 10.0 mi NW 17.3 mph 25.3 mph N/A   Scattered Clouds
1:54 PM 12.9 °F -2.8 °F -5.1 °F 45% 29.55 in 10.0 mi WNW 15.0 mph 21.9 mph N/A   Scattered Clouds
2:54 PM 14.0 °F -0.8 °F -5.1 °F 43% 29.55 in 10.0 mi WNW 13.8 mph - N/A   Mostly Cloudy
3:54 PM 16.0 °F 2.3 °F -2.9 °F 43% 29.57 in 10.0 mi West 12.7 mph 19.6 mph N/A   Mostly Cloudy
4:54 PM 15.1 °F 2.5 °F -2.9 °F 45% 29.57 in 10.0 mi West 10.4 mph 17.3 mph N/A   Scattered Clouds
5:54 PM 14.0 °F -0.8 °F 1.0 °F 56% 29.58 in 10.0 mi West 13.8 mph - N/A   Mostly Cloudy
6:54 PM 15.1 °F 0.5 °F -0.9 °F 49% 29.60 in 10.0 mi West 13.8 mph 18.4 mph N/A   Mostly Cloudy
7:54 PM 12.0 °F -5.1 °F -0.0 °F 59% 29.62 in 10.0 mi West 17.3 mph - N/A   Mostly Cloudy
8:54 PM 10.9 °F -5.4 °F -0.9 °F 59% 29.65 in 10.0 mi West 15.0 mph - N/A   Scattered Clouds
9:54 PM 10.0 °F -2.9 °F -0.9 °F 61% 29.68 in 10.0 mi West 9.2 mph - N/A   Scattered Clouds
10:54 PM 8.1 °F -4.3 °F -0.9 °F 67% 29.71 in 10.0 mi West 8.1 mph - N/A   Partly Cloudy
11:54 PM 6.1 °F -4.3 °F -0.9 °F 73% 29.74 in 10.0 mi West 5.8 mph - N/A   Clear